Hourly Weather Klaski

Today, 27 July, Tuesday

Time Temperature Precipitation Wind Pressure Humidity
00:00 +21°C° 0 mm 1 mps 749 mmHg 93%
01:00 +21°C° 0 mm 1 mps 749 mmHg 93%
02:00 +19°C° 0 mm 2 mps 749 mmHg 93%
03:00 +19°C° 0 mm 2 mps 749 mmHg 93%
04:00 +19°C° 0 mm 2 mps 749 mmHg 93%
05:00 +20°C° 0.1 mm 2 mps 749 mmHg 88%
06:00 +21°C° 0.1 mm 2 mps 749 mmHg 84%
07:00 +23°C° 0.1 mm 2 mps 749 mmHg 80%
08:00 +23°C° 0.1 mm 2 mps 750 mmHg 82%
09:00 +23°C° 0.1 mm 2 mps 750 mmHg 84%
10:00 +22°C° 0.1 mm 1 mps 750 mmHg 86%
11:00 +23°C° 0 mm 2 mps 750 mmHg 81%
12:00 +24°C° 0 mm 2 mps 750 mmHg 76%
13:00 +25°C° 0 mm 3 mps 750 mmHg 71%
14:00 +27°C° 0 mm 3 mps 750 mmHg 64%
15:00 +28°C° 0 mm 3 mps 750 mmHg 58%
16:00 +29°C° 0 mm 4 mps 750 mmHg 51%
17:00 +28°C° 0 mm 3 mps 750 mmHg 57%
18:00 +26°C° 0 mm 3 mps 750 mmHg 63%
19:00 +25°C° 0 mm 2 mps 750 mmHg 69%
20:00 +24°C° 0 mm 2 mps 750 mmHg 71%
21:00 +23°C° 0 mm 2 mps 750 mmHg 72%
22:00 +23°C° 0 mm 1 mps 751 mmHg 74%
23:00 +22°C° 0 mm 1 mps 751 mmHg 76%

Tomorrow, 28 July, Wednesday

Time Temperature Precipitation Wind Pressure Humidity
00:00 +21°C° 0 mm 2 mps 751 mmHg 78%
01:00 +20°C° 0 mm 2 mps 751 mmHg 79%
02:00 +20°C° 0 mm 2 mps 750 mmHg 81%
03:00 +20°C° 0 mm 2 mps 750 mmHg 82%
04:00 +19°C° 0 mm 2 mps 750 mmHg 83%
05:00 +21°C° 0 mm 2 mps 750 mmHg 77%
06:00 +24°C° 0 mm 2 mps 750 mmHg 71%
07:00 +25°C° 0 mm 2 mps 750 mmHg 65%
08:00 +27°C° 0 mm 2 mps 750 mmHg 59%
09:00 +28°C° 0 mm 2 mps 750 mmHg 53%
10:00 +30°C° 0 mm 2 mps 750 mmHg 48%
11:00 +30°C° 0 mm 2 mps 750 mmHg 48%
12:00 +30°C° 0 mm 2 mps 750 mmHg 48%
13:00 +30°C° 0 mm 2 mps 750 mmHg 48%
14:00 +29°C° 0.2 mm 3 mps 749 mmHg 53%
15:00 +27°C° 0.2 mm 3 mps 749 mmHg 59%
16:00 +26°C° 0.2 mm 4 mps 749 mmHg 64%
17:00 +25°C° 0.6 mm 3 mps 749 mmHg 70%
18:00 +24°C° 0.6 mm 2 mps 749 mmHg 75%
19:00 +22°C° 0.6 mm 1 mps 749 mmHg 81%
20:00 +22°C° 0.2 mm 1 mps 749 mmHg 82%
21:00 +20°C° 0.2 mm 2 mps 749 mmHg 83%
22:00 +20°C° 0.2 mm 2 mps 749 mmHg 85%
23:00 +20°C° 0 mm 2 mps 749 mmHg 87%

Day after tomorrow, 29 July, Thursday

Time Temperature Precipitation Wind Pressure Humidity
00:00 +19°C° 0 mm 2 mps 749 mmHg 89%
01:00 +19°C° 0 mm 3 mps 749 mmHg 91%
02:00 +19°C° 0 mm 3 mps 749 mmHg 92%
03:00 +18°C° 0 mm 3 mps 749 mmHg 93%
04:00 +18°C° 0 mm 3 mps 749 mmHg 94%
05:00 +19°C° 0 mm 3 mps 750 mmHg 89%
06:00 +20°C° 0 mm 3 mps 750 mmHg 84%
07:00 +21°C° 0 mm 3 mps 750 mmHg 79%
08:00 +22°C° 0 mm 4 mps 750 mmHg 70%
09:00 +25°C° 0 mm 4 mps 750 mmHg 62%
10:00 +26°C° 0 mm 5 mps 750 mmHg 54%
11:00 +27°C° 0 mm 5 mps 750 mmHg 50%
12:00 +28°C° 0 mm 6 mps 750 mmHg 46%
13:00 +28°C° 0 mm 7 mps 749 mmHg 42%
14:00 +28°C° 0 mm 6 mps 749 mmHg 41%
15:00 +28°C° 0 mm 6 mps 749 mmHg 40%
16:00 +29°C° 0 mm 6 mps 749 mmHg 39%
17:00 +27°C° 0 mm 5 mps 749 mmHg 44%
18:00 +25°C° 0 mm 4 mps 749 mmHg 49%
19:00 +24°C° 0 mm 3 mps 749 mmHg 55%
20:00 +22°C° 0 mm 3 mps 749 mmHg 55%
21:00 +21°C° 0 mm 3 mps 749 mmHg 56%
22:00 +20°C° 0 mm 3 mps 748 mmHg 57%
23:00 +20°C° 0 mm 2 mps 748 mmHg 58%

30 July, Friday

Time Temperature Precipitation Wind Pressure Humidity
00:00 +20°C° 0 mm 2 mps 748 mmHg 59%
01:00 +20°C° 0 mm 2 mps 748 mmHg 60%
02:00 +20°C° 0 mm 2 mps 748 mmHg 60%
03:00 +20°C° 0 mm 2 mps 748 mmHg 61%
04:00 +20°C° 0 mm 2 mps 748 mmHg 62%
05:00 +21°C° 0 mm 2 mps 748 mmHg 60%
06:00 +21°C° 0 mm 2 mps 748 mmHg 58%
07:00 +23°C° 0 mm 2 mps 748 mmHg 57%
08:00 +25°C° 0 mm 2 mps 748 mmHg 53%
09:00 +26°C° 0 mm 3 mps 748 mmHg 49%
10:00 +27°C° 0 mm 4 mps 748 mmHg 45%
11:00 +28°C° 0 mm 4 mps 747 mmHg 43%
12:00 +29°C° 0 mm 5 mps 747 mmHg 41%
13:00 +29°C° 0 mm 6 mps 747 mmHg 39%
14:00 +29°C° 0 mm 6 mps 747 mmHg 39%
15:00 +29°C° 0 mm 6 mps 746 mmHg 38%
16:00 +29°C° 0 mm 6 mps 746 mmHg 38%
17:00 +27°C° 0 mm 5 mps 746 mmHg 44%
18:00 +25°C° 0 mm 4 mps 746 mmHg 50%
19:00 +24°C° 0 mm 3 mps 746 mmHg 57%
20:00 +23°C° 0 mm 2 mps 746 mmHg 59%
21:00 +20°C° 0 mm 2 mps 746 mmHg 61%
22:00 +20°C° 0 mm 1 mps 746 mmHg 62%
23:00 +20°C° 0 mm 1 mps 746 mmHg 64%

31 July, Saturday

Time Temperature Precipitation Wind Pressure Humidity
00:00 +20°C° 0 mm 1 mps 746 mmHg 66%
01:00 +19°C° 0 mm 1 mps 746 mmHg 67%
02:00 +19°C° 0 mm 1 mps 746 mmHg 69%
03:00 +18°C° 0 mm 1 mps 746 mmHg 70%
04:00 +18°C° 0 mm 1 mps 746 mmHg 72%
05:00 +19°C° 0 mm 1 mps 746 mmHg 67%
06:00 +21°C° 0 mm 1 mps 746 mmHg 63%
07:00 +22°C° 0 mm 1 mps 746 mmHg 58%
08:00 +24°C° 0 mm 1 mps 746 mmHg 54%
09:00 +25°C° 0 mm 2 mps 746 mmHg 49%
10:00 +27°C° 0 mm 2 mps 746 mmHg 44%
11:00 +28°C° 0 mm 3 mps 745 mmHg 43%
12:00 +29°C° 0 mm 3 mps 745 mmHg 41%
13:00 +30°C° 0 mm 4 mps 745 mmHg 40%
14:00 +29°C° 0.1 mm 5 mps 745 mmHg 45%
15:00 +28°C° 0.1 mm 5 mps 745 mmHg 49%
16:00 +27°C° 0.1 mm 6 mps 745 mmHg 54%
17:00 +24°C° 0 mm 6 mps 745 mmHg 55%
18:00 +23°C° 0 mm 5 mps 745 mmHg 55%
19:00 +22°C° 0 mm 5 mps 745 mmHg 56%
20:00 +20°C° 0 mm 4 mps 746 mmHg 59%
21:00 +19°C° 0 mm 4 mps 746 mmHg 62%
22:00 +18°C° 0 mm 3 mps 746 mmHg 65%
23:00 +17°C° 0 mm 3 mps 747 mmHg 67%

1 August, Sunday

Time Temperature Precipitation Wind Pressure Humidity
00:00 +17°C° 0 mm 3 mps 747 mmHg 70%
01:00 +16°C° 0 mm 3 mps 747 mmHg 72%
02:00 +16°C° 0 mm 3 mps 747 mmHg 73%
03:00 +16°C° 0 mm 3 mps 747 mmHg 74%
04:00 +14°C° 0 mm 3 mps 747 mmHg 75%
05:00 +17°C° 0 mm 4 mps 747 mmHg 71%
06:00 +18°C° 0 mm 4 mps 747 mmHg 67%
07:00 +20°C° 0 mm 5 mps 747 mmHg 63%
08:00 +21°C° 0 mm 5 mps 748 mmHg 58%
09:00 +22°C° 0 mm 5 mps 748 mmHg 53%
10:00 +23°C° 0 mm 6 mps 748 mmHg 48%
11:00 +24°C° 0 mm 6 mps 747 mmHg 47%
12:00 +24°C° 0 mm 6 mps 747 mmHg 45%
13:00 +25°C° 0 mm 5 mps 747 mmHg 43%
14:00 +25°C° 0 mm 5 mps 747 mmHg 46%
15:00 +23°C° 0 mm 4 mps 747 mmHg 48%
16:00 +23°C° 0 mm 4 mps 747 mmHg 50%
17:00 +22°C° 0 mm 3 mps 747 mmHg 53%
18:00 +22°C° 0 mm 3 mps 747 mmHg 56%
19:00 +21°C° 0 mm 2 mps 747 mmHg 58%
20:00 +20°C° 0 mm 2 mps 746 mmHg 61%
21:00 +19°C° 0 mm 2 mps 746 mmHg 63%
22:00 +19°C° 0 mm 2 mps 746 mmHg 66%
23:00 +18°C° 0 mm 2 mps 746 mmHg 68%
Show more